Zurück zum Katalog

ZHIXIN-1

AktivKommunikationSSO
NORAD 65489·PAYLOAD·🇨🇳 China
Dieser Satellitenname wurde noch nicht durch offizielle Quellen bestätigt.

Gestartet Sep 5, 2025 von Jiuquan Satellite Launch Center

Loading…

Nächste Überflüge (nächste 24 Stunden)

TLE

AktuellSource: Space-Track

Epoche: Sep 14, 2026, 11:43 UTC

1 65489U 25197B   26257.48880688  .00002833  00000-0  13422-3 0  9999
2 65489  97.4111  82.1664 0014927  58.0051 302.2632 15.20043153 56841

Verfolge ZHIXIN-1 in Echtzeit mit AllMySat

Download on the App Store